TimeCST,TemperatureF,Dew PointF,Humidity,Sea Level PressureIn,VisibilityMPH,Wind Direction,Wind SpeedMPH,Gust SpeedMPH,PrecipitationIn,Events,Conditions,WindDirDegrees,DateUTC
12:15 AM,42.3,36.0,78,30.30,10.0,SSE,4.6,-,N/A,,Clear,160,2012-11-19 06:15:00
12:35 AM,41.2,36.1,82,30.30,10.0,SSE,4.6,-,N/A,,Clear,150,2012-11-19 06:35:00
12:55 AM,42.4,36.0,78,30.29,10.0,SSE,3.5,-,N/A,,Clear,150,2012-11-19 06:55:00
1:15 AM,41.0,35.6,81,30.29,10.0,SSE,4.6,-,N/A,,Clear,150,2012-11-19 07:15:00
1:35 AM,41.0,35.6,81,30.29,10.0,Calm,Calm,-,N/A,,Clear,0,2012-11-19 07:35:00
1:55 AM,40.3,35.2,82,30.29,10.0,Calm,Calm,-,N/A,,Clear,0,2012-11-19 07:55:00
2:15 AM,39.4,35.4,86,30.29,7.0,ESE,3.5,-,N/A,,Clear,110,2012-11-19 08:15:00
2:35 AM,37.4,34.0,87,30.29,7.0,Calm,Calm,-,N/A,,Clear,0,2012-11-19 08:35:00
2:55 AM,38.3,34.7,87,30.28,7.0,SE,3.5,-,N/A,,Clear,140,2012-11-19 08:55:00
3:15 AM,38.7,35.6,89,30.28,7.0,SSE,6.9,-,N/A,,Clear,160,2012-11-19 09:15:00
3:35 AM,40.1,35.6,84,30.27,10.0,SSE,4.6,-,N/A,,Clear,160,2012-11-19 09:35:00
3:55 AM,40.3,35.8,84,30.27,10.0,South,3.5,-,N/A,,Clear,180,2012-11-19 09:55:00
4:15 AM,39.4,35.6,86,30.27,7.0,SSE,3.5,-,N/A,,Clear,150,2012-11-19 10:15:00
4:35 AM,40.8,35.8,82,30.27,10.0,SSE,4.6,-,N/A,,Clear,150,2012-11-19 10:35:00
4:55 AM,40.1,36.1,86,30.27,7.0,SSE,3.5,-,N/A,,Clear,150,2012-11-19 10:55:00
5:15 AM,40.6,36.1,84,30.28,10.0,Calm,Calm,-,N/A,,Clear,0,2012-11-19 11:15:00
5:35 AM,40.3,36.0,85,30.27,10.0,South,3.5,-,N/A,,Clear,170,2012-11-19 11:35:00
5:55 AM,39.9,36.0,86,30.27,7.0,SSE,3.5,-,N/A,,Clear,150,2012-11-19 11:55:00
6:15 AM,40.3,36.0,85,30.27,10.0,Calm,Calm,-,N/A,,Clear,0,2012-11-19 12:15:00
6:35 AM,41.0,36.7,85,30.26,10.0,SSE,5.8,-,N/A,,Clear,150,2012-11-19 12:35:00
6:55 AM,41.9,36.7,82,30.26,10.0,SSE,4.6,-,N/A,,Clear,150,2012-11-19 12:55:00
7:15 AM,42.8,37.4,81,30.27,10.0,SSE,5.8,-,N/A,,Clear,150,2012-11-19 13:15:00
7:35 AM,42.4,37.4,82,30.27,10.0,SSE,5.8,-,N/A,,Clear,150,2012-11-19 13:35:00
7:55 AM,43.0,37.8,82,30.27,10.0,SSE,4.6,-,N/A,,Clear,150,2012-11-19 13:55:00
8:15 AM,43.7,38.3,81,30.27,10.0,South,4.6,-,N/A,,Clear,170,2012-11-19 14:15:00
8:35 AM,45.5,37.8,74,30.27,10.0,South,6.9,-,N/A,,Clear,190,2012-11-19 14:35:00
8:55 AM,47.3,37.9,70,30.27,10.0,South,9.2,-,N/A,,Clear,180,2012-11-19 14:55:00
9:15 AM,48.7,39.0,69,30.27,10.0,South,8.1,-,N/A,,Clear,180,2012-11-19 15:15:00
9:35 AM,49.1,39.0,68,30.27,10.0,South,6.9,-,N/A,,Clear,170,2012-11-19 15:35:00
9:55 AM,49.5,39.4,68,30.26,10.0,South,8.1,-,N/A,,Mostly Cloudy,180,2012-11-19 15:55:00
10:15 AM,50.4,39.0,65,30.26,10.0,South,8.1,-,N/A,,Overcast,190,2012-11-19 16:15:00
10:35 AM,51.1,39.4,64,30.25,10.0,South,10.4,-,N/A,,Overcast,180,2012-11-19 16:35:00
10:55 AM,51.8,39.7,63,30.25,10.0,SSW,4.6,-,N/A,,Mostly Cloudy,200,2012-11-19 16:55:00
11:15 AM,52.0,40.5,65,30.24,10.0,SSW,3.5,-,N/A,,Mostly Cloudy,200,2012-11-19 17:15:00
11:35 AM,52.7,40.8,64,30.23,10.0,SSW,3.5,-,N/A,,Overcast,210,2012-11-19 17:35:00
11:55 AM,53.4,40.8,62,30.22,10.0,SSW,5.8,-,N/A,,Overcast,200,2012-11-19 17:55:00
12:15 PM,53.8,40.3,60,30.21,10.0,South,5.8,-,N/A,,Overcast,190,2012-11-19 18:15:00
12:35 PM,54.1,40.6,60,30.20,10.0,South,4.6,-,N/A,,Overcast,190,2012-11-19 18:35:00
12:55 PM,54.7,41.0,60,30.20,10.0,SSW,5.8,-,N/A,,Overcast,200,2012-11-19 18:55:00
1:15 PM,55.9,40.3,56,30.19,10.0,South,10.4,-,N/A,,Overcast,180,2012-11-19 19:15:00
1:35 PM,55.4,39.9,56,30.19,10.0,South,5.8,-,N/A,,Overcast,190,2012-11-19 19:35:00
1:55 PM,55.9,40.1,55,30.18,10.0,SSW,4.6,-,N/A,,Overcast,210,2012-11-19 19:55:00
2:15 PM,55.9,40.1,55,30.18,10.0,South,5.8,-,N/A,,Overcast,190,2012-11-19 20:15:00
2:35 PM,55.6,39.9,56,30.17,10.0,South,4.6,-,N/A,,Overcast,190,2012-11-19 20:35:00
2:55 PM,54.9,40.8,59,30.17,10.0,SSW,4.6,-,N/A,,Overcast,200,2012-11-19 20:55:00
3:15 PM,54.5,41.0,60,30.17,10.0,South,6.9,-,N/A,,Overcast,180,2012-11-19 21:15:00
3:35 PM,54.1,41.2,62,30.16,10.0,South,5.8,-,N/A,,Overcast,180,2012-11-19 21:35:00
3:55 PM,53.6,41.9,65,30.16,10.0,South,6.9,-,N/A,,Overcast,170,2012-11-19 21:55:00
4:15 PM,53.2,41.7,65,30.15,10.0,South,5.8,-,N/A,,Overcast,170,2012-11-19 22:15:00
4:35 PM,52.3,42.1,68,30.15,10.0,SSE,4.6,-,N/A,,Overcast,160,2012-11-19 22:35:00
4:55 PM,51.4,42.8,72,30.14,10.0,Calm,Calm,-,N/A,,Overcast,0,2012-11-19 22:55:00
5:15 PM,51.3,42.8,73,30.15,10.0,SSE,4.6,-,N/A,,Overcast,160,2012-11-19 23:15:00
5:35 PM,51.8,42.1,69,30.14,10.0,SSE,5.8,-,N/A,,Overcast,160,2012-11-19 23:35:00
5:55 PM,52.0,41.9,69,30.14,10.0,SSE,5.8,-,N/A,,Overcast,160,2012-11-19 23:55:00
6:15 PM,52.0,41.9,69,30.14,10.0,SSE,6.9,-,N/A,,Overcast,160,2012-11-20 00:15:00
6:35 PM,52.0,41.9,69,30.14,10.0,South,5.8,-,N/A,,Overcast,180,2012-11-20 00:35:00
6:55 PM,52.2,41.9,68,30.15,10.0,South,5.8,-,N/A,,Overcast,170,2012-11-20 00:55:00
7:15 PM,52.0,42.1,69,30.14,10.0,SSE,4.6,-,N/A,,Overcast,160,2012-11-20 01:15:00
7:35 PM,51.3,42.3,71,30.14,10.0,South,6.9,-,N/A,,Overcast,180,2012-11-20 01:35:00
7:55 PM,52.3,41.7,67,30.13,10.0,South,10.4,-,N/A,,Overcast,180,2012-11-20 01:55:00
8:15 PM,51.8,41.9,69,30.14,10.0,South,5.8,-,N/A,,Overcast,190,2012-11-20 02:15:00
8:35 PM,52.7,41.2,65,30.14,10.0,South,8.1,-,N/A,,Overcast,180,2012-11-20 02:35:00
8:55 PM,51.8,41.0,67,30.13,10.0,South,6.9,-,N/A,,Overcast,180,2012-11-20 02:55:00
9:15 PM,52.0,41.0,66,30.13,10.0,South,6.9,-,N/A,,Overcast,180,2012-11-20 03:15:00
9:35 PM,51.8,41.0,67,30.13,10.0,South,6.9,-,N/A,,Overcast,170,2012-11-20 03:35:00
9:55 PM,52.0,41.0,66,30.12,10.0,South,6.9,-,N/A,,Overcast,180,2012-11-20 03:55:00
10:15 PM,51.8,41.2,67,30.12,10.0,South,4.6,-,N/A,,Overcast,170,2012-11-20 04:15:00
10:35 PM,51.4,41.5,69,30.12,10.0,South,5.8,-,N/A,,Overcast,170,2012-11-20 04:35:00
10:55 PM,51.1,41.9,71,30.12,10.0,South,5.8,-,N/A,,Overcast,180,2012-11-20 04:55:00
11:15 PM,50.9,41.9,71,30.12,10.0,South,6.9,-,N/A,,Overcast,170,2012-11-20 05:15:00
11:35 PM,50.9,41.9,71,30.11,10.0,South,5.8,-,N/A,,Overcast,180,2012-11-20 05:35:00
11:55 PM,50.4,41.9,73,30.11,10.0,South,5.8,-,N/A,,Overcast,180,2012-11-20 05:55:00